TimeEDT,TemperatureF,Dew PointF,Humidity,Sea Level PressureIn,VisibilityMPH,Wind Direction,Wind SpeedMPH,Gust SpeedMPH,PrecipitationIn,Events,Conditions,WindDirDegrees,DateUTC
12:51 AM,54.0,39.0,57,29.98,10.0,WNW,5.8,-,N/A,,Clear,300,2013-10-19 04:51:00
1:51 AM,52.0,39.9,63,29.98,10.0,Calm,Calm,-,N/A,,Clear,0,2013-10-19 05:51:00
2:51 AM,50.0,39.9,68,29.98,10.0,Calm,Calm,-,N/A,,Clear,0,2013-10-19 06:51:00
3:51 AM,50.0,39.9,68,29.98,10.0,Calm,Calm,-,N/A,,Clear,0,2013-10-19 07:51:00
4:51 AM,48.0,39.9,74,29.98,10.0,Calm,Calm,-,N/A,,Clear,0,2013-10-19 08:51:00
5:51 AM,46.9,39.0,74,29.97,10.0,Calm,Calm,-,N/A,,Clear,0,2013-10-19 09:51:00
6:51 AM,48.0,42.1,80,29.97,10.0,Calm,Calm,-,N/A,,Clear,0,2013-10-19 10:51:00
7:51 AM,48.0,42.1,80,29.97,10.0,Calm,Calm,-,N/A,,Clear,0,2013-10-19 11:51:00
8:51 AM,50.0,42.1,74,29.98,10.0,Calm,Calm,-,N/A,,Clear,0,2013-10-19 12:51:00
9:51 AM,53.1,43.0,69,29.97,10.0,Calm,Calm,-,N/A,,Clear,0,2013-10-19 13:51:00
10:51 AM,59.0,43.0,55,29.97,10.0,Calm,Calm,-,N/A,,Clear,0,2013-10-19 14:51:00
11:51 AM,63.0,42.1,46,29.96,10.0,SSW,4.6,-,N/A,,Clear,200,2013-10-19 15:51:00
12:51 PM,64.0,41.0,43,29.93,10.0,South,5.8,-,N/A,,Clear,190,2013-10-19 16:51:00
1:51 PM,64.9,41.0,42,29.90,10.0,South,9.2,-,N/A,,Clear,190,2013-10-19 17:51:00
2:51 PM,64.9,46.0,50,29.87,10.0,South,11.5,-,N/A,,Mostly Cloudy,170,2013-10-19 18:51:00
3:51 PM,64.0,46.9,54,29.85,10.0,South,9.2,46.0,N/A,,Mostly Cloudy,190,2013-10-19 19:51:00
4:05 PM,64.4,46.4,52,29.83,10.0,South,11.5,-,N/A,,Mostly Cloudy,180,2013-10-19 20:05:00
4:51 PM,64.0,46.9,54,29.80,10.0,SSE,8.1,-,N/A,,Scattered Clouds,150,2013-10-19 20:51:00
5:51 PM,63.0,48.9,60,29.81,10.0,South,8.1,-,N/A,,Scattered Clouds,180,2013-10-19 21:51:00
6:51 PM,63.0,48.0,58,29.80,10.0,South,8.1,-,N/A,,Mostly Cloudy,180,2013-10-19 22:51:00
7:51 PM,62.1,46.0,56,29.78,10.0,South,8.1,-,0.00,,Scattered Clouds,190,2013-10-19 23:51:00
8:51 PM,61.0,48.0,62,29.77,10.0,South,5.8,-,N/A,,Overcast,180,2013-10-20 00:51:00
9:25 PM,60.8,48.2,63,29.77,10.0,South,6.9,-,N/A,,Overcast,190,2013-10-20 01:25:00
9:51 PM,62.1,50.0,65,29.77,10.0,South,8.1,-,N/A,,Overcast,180,2013-10-20 01:51:00
10:27 PM,60.8,51.8,72,29.76,10.0,South,5.8,-,0.00,Rain,Light Rain,190,2013-10-20 02:27:00
10:51 PM,61.0,52.0,72,29.76,10.0,SSW,9.2,-,0.00,,Overcast,210,2013-10-20 02:51:00
11:51 PM,61.0,52.0,72,29.75,10.0,SW,9.2,-,0.00,,Overcast,230,2013-10-20 03:51:00